Location: Be Tobo
(6.6442°N, 10.6239°W)
Time: 00:54:59
(UTC+00:00)

NATO 3D Rocket - Pass Details

Date: 18 September 2020
Orbit: 670 x 2296 km, 21.5° (Epoch: 21 October)

Event Time Altitude Azimuth Distance (km) Brightness Sun altitude
Rises 20:32:12 0° 253° (WSW) 3,255 7.8 -28.6°
Reaches altitude 10° 20:34:50 10° 255° (WSW) 2,207 6.7 -29.2°
Enters shadow 20:38:32 48° 273° (W) 882 4.1 -30.1°
